This is the latest recevied weather packets stored in our database for station/object KC4BAM. If no packets are shown the sender has not sent any weather packets the latest 10 day(s).
| Time | Temp. | Humidity | Pressure | Rain* | Wind** | Luminosity | Snow |
|---|---|---|---|---|---|---|---|
| 1778008285 | 23.33° C | 56% | 999.6 hPa | 0 mm | - | 423 W/m² | - |
| 1778007981 | 23.33° C | 56% | 999.4 hPa | 0 mm | - | 731 W/m² | - |
| 1778007676 | 23.33° C | 56% | 999.6 hPa | 0 mm | - | 273 W/m² | - |
| 1778007373 | 23.33° C | 56% | 999.9 hPa | 0 mm | - | 657 W/m² | - |
| 1778007069 | 23.33° C | 57% | 999.9 hPa | 0 mm | - | 673 W/m² | - |
| 1778006766 | 23.33° C | 57% | 1000 hPa | 0 mm | - | 716 W/m² | - |
| 1778006463 | 22.78° C | 59% | 1000.1 hPa | 0 mm | - | 680 W/m² | - |
| 1778006159 | 22.78° C | 61% | 1000 hPa | 0 mm | - | 693 W/m² | - |
| 1778005857 | 22.22° C | 63% | 999.9 hPa | 0 mm | - | 723 W/m² | - |
| 1778005553 | 22.22° C | 63% | 999.8 hPa | 0 mm | - | 560 W/m² | - |
| 1778005250 | 21.67° C | 65% | 999.9 hPa | 0 mm | - | 764 W/m² | - |
| 1778004946 | 21.11° C | 66% | 1000 hPa | 0 mm | - | 463 W/m² | - |
| 1778004644 | 20.56° C | 68% | 1000.1 hPa | 0 mm | - | 747 W/m² | - |
| 1778004339 | 20.56° C | 70% | 1000.1 hPa | 0 mm | - | 324 W/m² | - |
| 1778004038 | 20.56° C | 71% | 1000.3 hPa | 0 mm | - | 286 W/m² | - |
| 1778003737 | 20.56° C | 72% | 1000.3 hPa | 0 mm | - | 812 W/m² | - |
| 1778003435 | 20° C | 73% | 1000.2 hPa | 0 mm | - | 612 W/m² | - |
| 1778003132 | 20° C | 74% | 1000.5 hPa | 0 mm | - | 227 W/m² | - |
| 1778002828 | 19.44° C | 75% | 1000.6 hPa | 0 mm | - | 315 W/m² | - |
| 1778002525 | 19.44° C | 76% | 1000.7 hPa | 0 mm | - | 335 W/m² | - |
| 1778002221 | 18.89° C | 77% | 1000.5 hPa | 0 mm | - | 331 W/m² | - |
| 1778001919 | 18.89° C | 77% | 1000.3 hPa | 0 mm | - | 206 W/m² | - |
| 1778001615 | 18.33° C | 77% | 1000.7 hPa | 0 mm | - | 181 W/m² | - |
| 1778001310 | 18.33° C | 78% | 1000.6 hPa | 0 mm | - | 105 W/m² | - |
| 1778001008 | 18.33° C | 78% | 1000.6 hPa | 0 mm | - | 86 W/m² | - |
* Rain latest hour (hover to see other rain measurements)
** Current wind speed in m/s (hover to see current wind gust speed)